Voltar ao catálogo

SL-8 DEB

AtivoUNKNOWN
NORAD 21919·DEBRIS·🇷🇺 Russia

Lançado Feb 12, 1991 de Plesetsk Cosmodrome

Loading…

Próximas Passagens (próximas 24 horas)

TLE

AtualizadoSource: Space-Track

Época: Sep 14, 2026, 07:13 UTC

1 21919U 91009CC  26257.30075057  .00000205  00000-0  31049-2 0  9996
2 21919  74.0709   6.9801 0355020 248.5794 136.1285 11.75204165519080

Acompanhe SL-8 DEB em tempo real com AllMySat

Download on the App Store